Location: Eberbach
(49.4690°N, 8.9930°E)
Time: 17:55:05
(UTC+02:00)

ISS - Pass Details

Date: 29 September 2021
Orbit: 417 x 423 km, 51.6° (Epoch: 20 October)

Event Time Altitude Azimuth Distance (km) Brightness Sun altitude
Rises 20:14:33 0° 286° (WNW) 2,365 2.2 -11.8°
Reaches altitude 10° 20:16:40 10° 288° (WNW) 1,500 0.5 -12.2°
Maximum altitude 20:20:01 74° 13° (NNE) 441 -3.7 -12.7°
Enters shadow 20:21:54 24° 96° (E) 914 -2.7 -13.0°
